[[{"header":{"parameterUnit":"m.s-1","parameterCategory":1,"la1":30.2991,"la2":30.254,"lo1":-89.0895,"lo2":-89.0444,"dy":0.0017,"dx":0.0017,"nx":28,"ny":28,"refTime":"2024-05-11T03:00:00:Z","depth":0,"parameterNumber":2,"parameterNumberName":"U-component_of_WINDS"},"data":[0,0,0,0,0,0,0,0,0,0,0,0,0,0,0,0,0,0,0,0,0,0,0,0,0,0,0,0,0,0,0,0,0,0,0,0,0,0,0,0,0,0,0,0,0,0,0,0,0,0,0,0,0,0,0,0,0,0,-5.2205,-5.2206,0,-5.2261,-5.2262,-5.2262,-5.2192,-5.219,-5.2187,-5.2185,-5.224,-5.2243,-5.2247,0,0,0,0,0,0,0,0,0,0,0,0,0,-5.2036,-5.204,-5.2205,-5.2206,-5.2207,-5.2261,-5.2262,-5.2262,-5.2193,-5.219,-5.2187,-5.2184,-5.2238,-5.2243,-5.2248,0,0,0,0,0,0,0,0,0,0,0,0,0,-5.2103,-5.2041,-5.2205,-5.2179,-5.2177,-5.2261,-5.2262,-5.2263,-5.2194,-5.219,-5.2186,-5.2182,-5.2237,-5.2243,-5.2248,-5.236,0,0,-5.2266,-5.2268,0,0,0,0,0,0,0,0,-5.2099,-5.2109,-5.2182,-5.2181,-5.2179,-5.2216,-5.2222,-5.2295,-5.2195,-5.2187,-5.2185,-5.218,-5.2235,-5.224,-5.2259,-5.2363,-5.2365,-5.2266,-5.227,-5.2272,-5.2274,0,0,0,0,0,0,0,-5.2094,-5.2106,-5.2227,-5.2183,-5.2181,-5.2163,-5.2168,-5.2236,-5.2232,-5.2187,-5.2183,-5.219,-5.2233,-5.2254,-5.226,-5.2366,-5.2266,-5.2271,-5.2275,-5.2277,-5.2563,-5.2567,0,0,0,0,0,0,-5.2093,-5.2103,-5.2225,-5.2229,-5.2129,-5.2169,-5.2175,-5.2208,-5.2231,-5.2231,-5.2193,-5.2187,-5.2246,-5.2253,-5.2262,-5.2393,-5.2272,-5.2278,-5.2281,-5.2559,-5.2564,-5.2568,0,0,0,0,0,0,-5.209,-5.2105,-5.2223,-5.2165,-5.2178,-5.2176,-5.2214,-5.2211,-5.2231,-5.2235,-5.2234,-5.2215,-5.2243,-5.2254,-5.2336,-5.2394,-5.228,-5.2285,-5.2554,-5.256,-5.2566,-5.2657,0,0,0,0,0,0,-5.2085,-5.2104,-5.2147,-5.2166,-5.2182,-5.2298,-5.2217,-5.2215,-5.2242,-5.2234,-5.2256,-5.2255,-5.2241,-5.2328,-5.2342,-5.2399,-5.229,-5.2549,-5.2557,-5.2564,-5.2648,-5.2665,-5.268,0,0,0,0,0,-5.208,-5.217,-5.215,-5.2165,-5.2236,-5.2301,-5.231,-5.2292,-5.2247,-5.2289,-5.2292,-5.2255,-5.2386,-5.2337,-5.2352,-5.2412,-5.2545,-5.2555,-5.2564,-5.2641,-5.2662,-5.2679,0,0,0,0,0,0,-5.2157,-5.2172,-5.215,-5.2249,-5.2275,-5.2289,-5.2342,-5.2314,-5.2352,-5.2343,-5.2319,-5.2324,-5.2412,-5.2421,-5.2366,-5.2521,-5.2458,-5.2471,-5.2512,-5.2531,-5.2547,-5.2541,-5.2295,0,0,0,0,0,-5.2186,-5.2239,-5.2249,-5.2336,-5.235,-5.2345,-5.2372,-5.2357,-5.2381,-5.2391,-5.24,-5.2425,-5.2471,-5.2502,-5.2545,-5.2651,-5.2653,-5.2699,-5.2715,-5.2728,-5.2738,-5.2793,-5.2813,-5.2599,-5.2599,-5.2599,0,0,-5.2246,-5.2261,-5.2296,-5.2352,-5.237,-5.2424,-5.2354,-5.2414,-5.2453,-5.24,-5.2478,-5.2486,-5.2512,-5.2606,-5.2648,-5.2616,-5.2798,-5.274,-5.275,-5.2753,-5.2804,-5.2824,-5.2842,-5.2605,-5.2604,-5.2603,0,0,-5.2382,-5.24,-5.2473,-5.2493,-5.2521,-5.2516,-5.2534,-5.2554,-5.2556,-5.2635,-5.2596,-5.2642,-5.2723,-5.2743,-5.2764,-5.2908,-5.2875,-5.2923,-5.3003,-5.3057,-5.3073,-5.3088,-5.3138,-5.3156,-5.2934,-5.2935,-5.2935,0,-5.2453,-5.2533,-5.2514,-5.2577,-5.2603,-5.2558,-5.2632,-5.2651,-5.2692,-5.271,-5.2674,-5.2775,-5.279,-5.2887,-5.2922,-5.2941,-5.2959,-5.2919,-5.3073,-5.3087,-5.3101,-5.3147,-5.3166,-5.294,-5.2939,-5.2939,-5.2938,0,-5.2617,-5.2674,-5.273,-5.277,-5.2802,-5.2871,-5.2861,-5.2896,-5.2878,-5.2877,-5.2957,-5.2973,-5.3018,-5.3041,-5.3024,-5.3135,-5.3114,-5.3077,-5.3012,-5.3127,-5.317,-5.3188,-5.2948,-5.2946,-5.2944,-5.2943,0,0,-5.2802,-5.2832,-5.2852,-5.287,-5.2898,-5.294,-5.3007,-5.3051,-5.308,-5.3111,-5.3164,-5.3234,-5.3199,-5.3223,-5.3208,-5.3255,-5.3366,-5.3211,-5.3211,-5.3237,-5.3488,-5.3514,-5.3535,-5.3345,-5.3349,-5.3351,-5.3485,0,-5.2936,-5.305,-5.3035,-5.3144,-5.3195,-5.3155,-5.3212,-5.3235,-5.3236,-5.3279,-5.3281,-5.333,-5.3281,-5.3295,-5.334,-5.3343,-5.3415,-5.3333,-5.3392,-5.3395,-5.3384,-5.3558,-5.3587,-5.3711,-5.3502,-5.3505,-5.3507,0,-5.3108,-5.3144,-5.3258,-5.3277,-5.3298,-5.335,-5.3389,-5.3432,-5.3456,-5.3454,-5.3481,-5.3458,-5.3523,-5.3459,-5.3547,-5.3492,-5.3515,-5.3521,-5.3525,-5.3527,-5.3456,-5.3563,-5.3751,-5.3769,-5.3534,-5.3531,-5.353,0,-5.3228,-5.3305,-5.3383,-5.34,-5.3425,-5.3462,-5.3474,-5.3495,-5.3523,-5.3558,-5.3575,-5.3617,-5.3639,-5.3672,-5.366,-5.3615,-5.375,-5.3686,-5.3748,-5.3749,-5.3776,-5.3774,-5.3968,-5.3796,-5.3796,-5.3796,-5.3795,0,-5.3378,-5.3449,-5.3437,-5.3485,-5.3563,-5.3546,-5.3623,-5.363,-5.3649,-5.3697,-5.3665,-5.371,-5.3693,-5.3737,-5.3729,-5.3802,-5.3813,-5.3811,-5.3808,-5.3813,-5.3813,-5.3826,-5.3816,-5.3801,-5.38,-5.3799,-5.3798,0,-5.3524,-5.352,-5.3601,-5.3619,-5.3625,-5.3681,-5.3696,-5.374,-5.374,-5.38,-5.3813,-5.3813,-5.3863,-5.3855,-5.3911,-5.3905,-5.3995,-5.3983,-5.3987,-5.3983,-5.4045,-5.4038,-5.4252,-5.4279,-5.4092,-5.4094,-5.4095,0,-5.3619,-5.3672,-5.3696,-5.3725,-5.374,-5.3789,-5.3817,-5.3802,-5.3832,-5.3865,-5.3905,-5.3953,-5.3989,-5.4071,-5.4075,-5.4117,-5.4103,-5.4176,-5.4109,-5.4113,-5.4102,-5.4098,-5.4102,-5.4188,-5.419,-5.4192,-5.4193,0,-5.3787,-5.3782,-5.3824,-5.3865,-5.39,-5.3932,-5.396,-5.3986,-5.3974,-5.401,-5.4061,-5.409,-5.4147,-5.4193,-5.4233,-5.4244,-5.4217,-5.4214,-5.4231,-5.4235,-5.4234,-5.4233,-5.402,-5.4209,-5.4207,-5.4206,-5.4205,-5.4205,-5.3909,-5.3954,-5.3977,-5.4024,-5.4045,-5.4072,-5.4114,-5.4119,-5.4162,-5.4207,-5.4196,-5.4253,-5.4276,-5.4326,-5.4342,-5.4386,-5.436,-5.4384,-5.439,-5.4395,-5.4402,-5.423,-5.4394,-5.4394,-5.4393,-5.4393,-5.4392,0,-5.4073,-5.4086,-5.413,-5.4171,-5.4208,-5.418,-5.421,-5.4243,-5.4294,-5.4318,-5.4355,-5.4413,-5.4459,-5.4467,-5.451,-5.4543,-5.4532,-5.4555,-5.4551,-5.4554,-5.4424,-5.4405,-5.4564,-5.4564,-5.4564,-5.4564,-5.4564,-5.4563,-5.4163,-5.4237,-5.4235,-5.4318,-5.4331,-5.4387,-5.4406,-5.4431,-5.445,-5.4517,-5.4554,-5.4559,-5.4577,-5.4621,-5.4661,-5.4662,-5.4678,-5.4706,-5.4702,-5.458,-5.4563,-5.4547,-5.4528,-5.471,-5.4711,-5.4828,-5.4829,-5.483]},{"header":{"parameterUnit":"m.s-1","parameterCategory":1,"la1":30.2991,"la2":30.254,"lo1":-89.0895,"lo2":-89.0444,"dy":0.0017,"dx":0.0017,"nx":28,"ny":28,"refTime":"2024-05-11T03:00:00:Z","depth":0,"parameterNumber":3,"parameterNumberName":"V-component_of_WINDS"},"data":[0,0,0,0,0,0,0,0,0,0,0,0,0,0,0,0,0,0,0,0,0,0,0,0,0,0,0,0,0,0,0,0,0,0,0,0,0,0,0,0,0,0,0,0,0,0,0,0,0,0,0,0,0,0,0,0,0,0,5.3493,5.3494,0,5.3617,5.3618,5.362,5.3596,5.3594,5.3591,5.3589,5.3711,5.3716,5.3721,0,0,0,0,0,0,0,0,0,0,0,0,0,5.323,5.3235,5.3493,5.3494,5.3496,5.3617,5.3618,5.362,5.3596,5.3594,5.3591,5.3588,5.3709,5.3715,5.3721,0,0,0,0,0,0,0,0,0,0,0,0,0,5.3348,5.3237,5.3493,5.3499,5.3501,5.3616,5.3619,5.3621,5.3597,5.3594,5.359,5.3587,5.3707,5.3714,5.3722,5.3838,0,0,5.3747,5.375,0,0,0,0,0,0,0,0,5.3342,5.3358,5.3496,5.3499,5.3501,5.3588,5.357,5.3693,5.3598,5.356,5.3589,5.3585,5.3672,5.3683,5.3713,5.3844,5.3849,5.3747,5.3752,5.3756,5.3758,0,0,0,0,0,0,0,5.3334,5.3352,5.3542,5.3498,5.3501,5.3494,5.3507,5.3594,5.3633,5.3563,5.3562,5.3577,5.3673,5.3705,5.3716,5.3851,5.3747,5.3754,5.3759,5.3762,5.4082,5.4086,0,0,0,0,0,0,5.3324,5.3346,5.3538,5.3545,5.3412,5.3501,5.3516,5.3563,5.3632,5.364,5.358,5.3575,5.3693,5.3706,5.372,5.3859,5.3755,5.3763,5.3767,5.4079,5.4083,5.4087,0,0,0,0,0,0,5.3319,5.3341,5.3533,5.3445,5.3469,5.3509,5.3563,5.3567,5.36,5.3645,5.3651,5.3606,5.3691,5.3709,5.3809,5.3863,5.3767,5.3774,5.4074,5.408,5.4085,5.4139,0,0,0,0,0,0,5.3311,5.334,5.3385,5.3447,5.3474,5.3622,5.3566,5.3572,5.3615,5.361,5.3671,5.3678,5.369,5.3797,5.3817,5.3872,5.378,5.4069,5.4077,5.4083,5.4132,5.4145,5.4157,0,0,0,0,0,5.3302,5.3394,5.3387,5.3411,5.3532,5.3625,5.364,5.3654,5.3619,5.3664,5.3693,5.3676,5.3855,5.3808,5.383,5.3888,5.4066,5.4075,5.4083,5.4127,5.4143,5.4156,0,0,0,0,0,0,5.3335,5.3402,5.3395,5.3511,5.3563,5.3621,5.3678,5.367,5.3731,5.3724,5.3737,5.3751,5.3853,5.3881,5.3828,5.4004,5.3955,5.3968,5.3981,5.3997,5.4009,5.3999,5.3787,0,0,0,0,0,5.3356,5.3428,5.3482,5.3578,5.3605,5.3637,5.3678,5.3684,5.3737,5.3758,5.3795,5.3846,5.3913,5.3957,5.4021,5.4137,5.4149,5.4188,5.42,5.421,5.4221,5.4283,5.4301,5.4115,5.4115,5.4114,0,0,5.3399,5.3445,5.3489,5.3586,5.3627,5.3699,5.3655,5.3733,5.3786,5.377,5.3867,5.3896,5.3953,5.4062,5.4111,5.4088,5.4275,5.4221,5.4229,5.4233,5.4294,5.4311,5.4327,5.412,5.4119,5.4118,0,0,5.3514,5.3557,5.3642,5.3685,5.3748,5.3769,5.379,5.385,5.3869,5.3967,5.3956,5.4019,5.4135,5.4177,5.4213,5.4347,5.4333,5.4368,5.443,5.4491,5.4506,5.4519,5.4565,5.4581,5.4378,5.4378,5.4379,0,5.3559,5.3669,5.3686,5.3766,5.3808,5.3799,5.3884,5.3924,5.4004,5.4033,5.4007,5.4153,5.4192,5.4309,5.4342,5.4373,5.4395,5.4359,5.4503,5.4516,5.4528,5.4572,5.459,5.4382,5.4382,5.4381,5.4381,0,5.3721,5.3798,5.3858,5.3938,5.3988,5.407,5.4097,5.4145,5.4148,5.4172,5.4272,5.4318,5.4392,5.4421,5.4423,5.4539,5.4523,5.45,5.4451,5.4549,5.4591,5.4608,5.4387,5.4386,5.4385,5.4384,0,0,5.3857,5.3948,5.3969,5.4006,5.4076,5.4135,5.4216,5.4291,5.4331,5.4387,5.4454,5.4554,5.4534,5.4575,5.4583,5.4637,5.4738,5.4607,5.4608,5.4628,5.4867,5.4882,5.4901,5.4731,5.4734,5.4737,5.4862,0,5.3978,5.4123,5.4141,5.4269,5.4339,5.4333,5.4404,5.4454,5.4479,5.4541,5.4568,5.4638,5.4607,5.4632,5.4685,5.4714,5.4786,5.4706,5.4791,5.4794,5.4774,5.4923,5.4939,5.5055,5.4878,5.4881,5.4883,0,5.4137,5.42,5.4336,5.4397,5.4427,5.4491,5.4561,5.4621,5.4677,5.4692,5.4739,5.474,5.4823,5.4773,5.4887,5.4832,5.4868,5.4888,5.4893,5.4899,5.4842,5.4931,5.5092,5.5108,5.4909,5.4907,5.4905,0,5.4221,5.434,5.4436,5.4468,5.4542,5.4587,5.462,5.4673,5.4717,5.4778,5.4806,5.4875,5.4912,5.4965,5.4984,5.4947,5.5096,5.5048,5.5109,5.5108,5.5138,5.5135,5.5304,5.5166,5.5165,5.5165,5.5165,0,5.4352,5.4434,5.4475,5.4534,5.4627,5.4647,5.4737,5.4768,5.4816,5.488,5.4879,5.4938,5.4962,5.5025,5.5041,5.5131,5.5148,5.5161,5.5163,5.516,5.5158,5.5181,5.5173,5.517,5.5169,5.5168,5.5167,0,5.4459,5.449,5.4595,5.4658,5.4676,5.4741,5.4794,5.485,5.4876,5.4957,5.4977,5.5016,5.509,5.5116,5.5206,5.5216,5.5321,5.5318,5.5302,5.5302,5.536,5.5353,5.5548,5.5574,5.5421,5.5422,5.5423,0,5.4539,5.4603,5.4674,5.4718,5.4753,5.4823,5.4869,5.4891,5.4938,5.5008,5.5056,5.513,5.5191,5.531,5.5345,5.5414,5.5411,5.5475,5.5421,5.5415,5.541,5.5405,5.541,5.5483,5.5485,5.5486,5.5487,0,5.4678,5.4691,5.4757,5.4829,5.4884,5.4941,5.4996,5.5032,5.5062,5.5115,5.5192,5.524,5.5333,5.5406,5.5477,5.5508,5.5503,5.5505,5.5522,5.5517,5.5505,5.551,5.5327,5.5499,5.5498,5.5497,5.5497,5.5496,5.4773,5.483,5.4889,5.4962,5.5007,5.5059,5.5116,5.5149,5.5215,5.5293,5.5302,5.5385,5.544,5.5535,5.5571,5.5635,5.5617,5.5642,5.5648,5.5653,5.5657,5.5497,5.5648,5.5648,5.5647,5.5647,5.5647,0,5.491,5.4948,5.5016,5.5095,5.5153,5.5146,5.5207,5.5255,5.5329,5.5382,5.5443,5.5531,5.5603,5.5645,5.5717,5.576,5.5759,5.5778,5.5773,5.578,5.567,5.5647,5.5777,5.5777,5.5777,5.5777,5.5777,5.5777,5.4988,5.5083,5.5103,5.522,5.5257,5.5339,5.5375,5.5423,5.5465,5.5565,5.5625,5.5653,5.5702,5.5777,5.5842,5.5853,5.5878,5.5898,5.5907,5.5802,5.5788,5.5775,5.5754,5.5904,5.5904,5.6012,5.6013,5.6013]}]]